When you browse on this site, cookies collect data to enhance your experience and personalize the content and advertising you see.
Visit our Privacy Policy to learn more. By continuing to use the site, you agree to this use of cookies and data.
  • en Suisse
  • Liste des pays
  • À 7 jours
  • Température de l'eau
  • Carte météo
  • Widgets météo
  • user-avatar
    Se connecter

    Météo par heure à Marbella

    Ce jour, 23 Septembre, Lundi

    Heure Température Précipitation Vent Pression Humidité
    00:00 +21°C° 0 mm 3 m/s 757 mmHg 62%
    01:00 +21°C° 0 mm 3 m/s 757 mmHg 63%
    02:00 +20°C° 0 mm 3 m/s 757 mmHg 63%
    03:00 +20°C° 0 mm 3 m/s 757 mmHg 63%
    04:00 +20°C° 0 mm 3 m/s 757 mmHg 62%
    05:00 +20°C° 0 mm 3 m/s 757 mmHg 60%
    06:00 +20°C° 0 mm 3 m/s 758 mmHg 58%
    07:00 +23°C° 0 mm 2 m/s 758 mmHg 51%
    08:00 +24°C° 0 mm 2 m/s 758 mmHg 45%
    09:00 +26°C° 0 mm 2 m/s 758 mmHg 39%
    10:00 +28°C° 0 mm 2 m/s 758 mmHg 35%
    11:00 +29°C° 0 mm 2 m/s 758 mmHg 30%
    12:00 +30°C° 0 mm 2 m/s 758 mmHg 26%
    13:00 +31°C° 0 mm 1 m/s 758 mmHg 26%
    14:00 +31°C° 0 mm 1 m/s 758 mmHg 26%
    15:00 +31°C° 0 mm 1 m/s 757 mmHg 26%
    16:00 +30°C° 0 mm 1 m/s 757 mmHg 30%
    17:00 +28°C° 0 mm 1 m/s 757 mmHg 34%
    18:00 +25°C° 0 mm 0 m/s 757 mmHg 38%
    19:00 +24°C° 0 mm 0 m/s 758 mmHg 39%
    20:00 +23°C° 0 mm 0 m/s 758 mmHg 41%
    21:00 +23°C° 0 mm 0 m/s 758 mmHg 42%
    22:00 +22°C° 0 mm 0 m/s 758 mmHg 42%
    23:00 +22°C° 0 mm 0 m/s 758 mmHg 43%

    Demain, 24 Septembre, Mardi

    Heure Température Précipitation Vent Pression Humidité
    00:00 +22°C° 0 mm 0 m/s 758 mmHg 43%
    01:00 +22°C° 0 mm 0 m/s 758 mmHg 44%
    02:00 +21°C° 0 mm 0 m/s 758 mmHg 44%
    03:00 +21°C° 0 mm 0 m/s 758 mmHg 44%
    04:00 +21°C° 0 mm 0 m/s 758 mmHg 44%
    05:00 +23°C° 0 mm 1 m/s 757 mmHg 43%
    06:00 +23°C° 0 mm 1 m/s 757 mmHg 43%
    07:00 +25°C° 0 mm 1 m/s 758 mmHg 38%
    08:00 +27°C° 0 mm 1 m/s 758 mmHg 34%
    09:00 +29°C° 0 mm 1 m/s 759 mmHg 30%
    10:00 +30°C° 0 mm 1 m/s 758 mmHg 27%
    11:00 +32°C° 0 mm 2 m/s 758 mmHg 24%
    12:00 +34°C° 0 mm 2 m/s 758 mmHg 22%
    13:00 +34°C° 0 mm 2 m/s 757 mmHg 21%
    14:00 +35°C° 0 mm 2 m/s 757 mmHg 21%
    15:00 +35°C° 0 mm 2 m/s 756 mmHg 20%
    16:00 +32°C° 0 mm 2 m/s 756 mmHg 24%
    17:00 +31°C° 0 mm 2 m/s 756 mmHg 27%
    18:00 +29°C° 0 mm 2 m/s 756 mmHg 30%
    19:00 +29°C° 0 mm 2 m/s 756 mmHg 30%
    20:00 +28°C° 0 mm 2 m/s 757 mmHg 29%
    21:00 +27°C° 0 mm 3 m/s 757 mmHg 29%
    22:00 +27°C° 0 mm 3 m/s 757 mmHg 30%
    23:00 +26°C° 0 mm 3 m/s 756 mmHg 31%

    Après-demain, 25 Septembre, Mercredi

    Heure Température Précipitation Vent Pression Humidité
    00:00 +26°C° 0 mm 3 m/s 756 mmHg 32%
    01:00 +26°C° 0 mm 3 m/s 756 mmHg 36%
    02:00 +25°C° 0 mm 3 m/s 756 mmHg 40%
    03:00 +25°C° 0 mm 3 m/s 756 mmHg 43%
    04:00 +25°C° 0 mm 3 m/s 756 mmHg 46%
    05:00 +24°C° 0 mm 3 m/s 756 mmHg 48%
    06:00 +24°C° 0 mm 3 m/s 756 mmHg 51%
    07:00 +26°C° 0 mm 3 m/s 756 mmHg 47%
    08:00 +28°C° 0 mm 2 m/s 756 mmHg 44%
    09:00 +30°C° 0 mm 2 m/s 757 mmHg 40%
    10:00 +31°C° 0 mm 3 m/s 757 mmHg 39%
    11:00 +33°C° 0 mm 3 m/s 756 mmHg 37%
    12:00 +35°C° 0 mm 4 m/s 756 mmHg 35%
    13:00 +35°C° 0 mm 4 m/s 756 mmHg 34%
    14:00 +35°C° 0 mm 4 m/s 755 mmHg 33%
    15:00 +36°C° 0 mm 4 m/s 755 mmHg 32%
    16:00 +34°C° 0 mm 4 m/s 755 mmHg 34%
    17:00 +33°C° 0 mm 4 m/s 755 mmHg 36%
    18:00 +30°C° 0 mm 4 m/s 755 mmHg 38%
    19:00 +29°C° 0 mm 3 m/s 755 mmHg 37%
    20:00 +28°C° 0 mm 3 m/s 756 mmHg 37%
    21:00 +27°C° 0 mm 3 m/s 756 mmHg 36%
    22:00 +27°C° 0 mm 2 m/s 756 mmHg 36%
    23:00 +27°C° 0 mm 2 m/s 756 mmHg 36%

    26 Septembre, Jeudi

    Heure Température Précipitation Vent Pression Humidité
    00:00 +26°C° 0 mm 2 m/s 756 mmHg 37%
    01:00 +26°C° 0 mm 2 m/s 756 mmHg 38%
    02:00 +25°C° 0 mm 2 m/s 756 mmHg 40%
    03:00 +25°C° 0 mm 2 m/s 756 mmHg 42%
    04:00 +25°C° 0 mm 2 m/s 756 mmHg 44%
    05:00 +24°C° 0 mm 2 m/s 756 mmHg 45%
    06:00 +24°C° 0 mm 2 m/s 756 mmHg 47%
    07:00 +25°C° 0 mm 2 m/s 757 mmHg 48%
    08:00 +27°C° 0 mm 3 m/s 757 mmHg 48%
    09:00 +28°C° 0 mm 3 m/s 757 mmHg 49%
    10:00 +29°C° 0 mm 3 m/s 757 mmHg 49%
    11:00 +30°C° 0 mm 4 m/s 757 mmHg 50%
    12:00 +30°C° 0 mm 4 m/s 757 mmHg 50%
    13:00 +30°C° 0 mm 4 m/s 757 mmHg 51%
    14:00 +30°C° 0 mm 4 m/s 757 mmHg 51%
    15:00 +30°C° 0 mm 3 m/s 756 mmHg 52%
    16:00 +29°C° 0 mm 3 m/s 756 mmHg 58%
    17:00 +28°C° 0 mm 2 m/s 756 mmHg 64%
    18:00 +26°C° 0 mm 2 m/s 757 mmHg 70%
    19:00 +26°C° 0 mm 1 m/s 757 mmHg 74%
    20:00 +25°C° 0 mm 1 m/s 757 mmHg 78%
    21:00 +24°C° 0 mm 1 m/s 758 mmHg 82%
    22:00 +24°C° 0 mm 1 m/s 758 mmHg 82%
    23:00 +23°C° 0 mm 1 m/s 758 mmHg 82%

    27 Septembre, Vendredi

    Heure Température Précipitation Vent Pression Humidité
    00:00 +23°C° 0 mm 2 m/s 758 mmHg 82%
    01:00 +23°C° 0 mm 2 m/s 758 mmHg 79%
    02:00 +23°C° 0 mm 1 m/s 757 mmHg 76%
    03:00 +23°C° 0 mm 1 m/s 757 mmHg 73%
    04:00 +22°C° 0 mm 1 m/s 757 mmHg 74%
    05:00 +22°C° 0 mm 1 m/s 757 mmHg 74%
    06:00 +22°C° 0 mm 1 m/s 758 mmHg 75%
    07:00 +24°C° 0 mm 1 m/s 758 mmHg 69%
    08:00 +25°C° 0 mm 1 m/s 758 mmHg 64%
    09:00 +27°C° 0 mm 2 m/s 758 mmHg 58%
    10:00 +28°C° 0 mm 2 m/s 758 mmHg 55%
    11:00 +29°C° 0 mm 2 m/s 758 mmHg 51%
    12:00 +30°C° 0 mm 2 m/s 758 mmHg 48%
    13:00 +31°C° 0 mm 2 m/s 757 mmHg 48%
    14:00 +31°C° 0 mm 2 m/s 757 mmHg 48%
    15:00 +31°C° 0 mm 2 m/s 756 mmHg 48%
    16:00 +29°C° 0 mm 1 m/s 756 mmHg 53%
    17:00 +28°C° 0 mm 1 m/s 756 mmHg 59%
    18:00 +25°C° 0 mm 0 m/s 756 mmHg 64%
    19:00 +24°C° 0 mm 0 m/s 756 mmHg 67%
    20:00 +23°C° 0 mm 0 m/s 757 mmHg 70%
    21:00 +22°C° 0 mm 0 m/s 757 mmHg 73%
    22:00 +24°C° 0 mm 1 m/s 757 mmHg 75%
    23:00 +24°C° 0 mm 1 m/s 757 mmHg 76%

    28 Septembre, Samedi

    Heure Température Précipitation Vent Pression Humidité
    00:00 +23°C° 0 mm 1 m/s 757 mmHg 77%
    01:00 +23°C° 0 mm 1 m/s 757 mmHg 77%
    02:00 +23°C° 0 mm 1 m/s 757 mmHg 77%
    03:00 +22°C° 0 mm 1 m/s 756 mmHg 78%
    04:00 +22°C° 0 mm 1 m/s 756 mmHg 76%
    05:00 +22°C° 0 mm 1 m/s 756 mmHg 75%
    06:00 +22°C° 0 mm 1 m/s 756 mmHg 74%
    07:00 +24°C° 0 mm 1 m/s 757 mmHg 66%
    08:00 +26°C° 0 mm 1 m/s 757 mmHg 58%
    09:00 +27°C° 0 mm 1 m/s 757 mmHg 51%
    10:00 +28°C° 0 mm 2 m/s 757 mmHg 49%
    11:00 +29°C° 0 mm 2 m/s 757 mmHg 47%
    12:00 +30°C° 0 mm 2 m/s 757 mmHg 45%
    13:00 +30°C° 0 mm 2 m/s 756 mmHg 45%
    14:00 +30°C° 0 mm 2 m/s 756 mmHg 45%
    15:00 +30°C° 0 mm 2 m/s 755 mmHg 45%
    16:00 +29°C° 0 mm 2 m/s 755 mmHg 51%
    17:00 +27°C° 0 mm 2 m/s 755 mmHg 57%
    18:00 +26°C° 0 mm 1 m/s 755 mmHg 63%
    19:00 +25°C° 0 mm 1 m/s 756 mmHg 66%
    20:00 +24°C° 0 mm 1 m/s 756 mmHg 70%
    21:00 +23°C° 0 mm 1 m/s 756 mmHg 73%
    22:00 +23°C° 0 mm 1 m/s 756 mmHg 73%
    23:00 +23°C° 0 mm 1 m/s 756 mmHg 73%
    Voir plus